7 * 24
多渠道服务支持
Hi!有什么问题可以问我哦~
RADUGA 18(虹18号)是独联体(CIS)继承自苏联的第一代“虹”系列地球同步轨道通信卫星,于1986年1月17日发射入轨。作为苏联/俄罗斯首个同步轨道通信卫星家族成员,它采用KAUR-3平台研制,搭载C频段转发器,主要承担东半球区域军事通信、民用电视广播及电报电话业务,为俄联邦及周边区域提供稳定通信支撑,是冷战时期苏联通信卫星组网的重要组成部分。
| 数据来源 | 国际轨道数据 |
| 星历时间: | 2026-04-03T19:47:01+0800 15小时前 查看轨道信息 |
| 半长轴: | 42578.131km |
| 偏心率: | 0.0068993 |
| 轨道倾角: | 10.639° |
| 近地点辐角 | 199.951° |
| 升交点赤经 | 321.671° |
| 平近点角 | 347.421° |
| 近地点: | 35906.234km |
| 远地点: | 36493.754km |
| 周期: | 1457.269分钟 |
| 每日圈数: | 0.98815 |